FW4251 Weather Reports


Display with metric or nautical units.
time (UTC)temp
F
wind
direction
speed
MPH
gust
MPH
rain 1hr
in
rain 24hr
in
rain mn
in
humidity
%
barometer
mb
20260509164019 50 310 0.0 2.0 0.00 0.00 0.00 94 1011.7
20260509163522 50 310 0.0 3.0 0.00 0.00 0.00 94 1011.9
20260509163022 50 310 1.0 3.0 0.00 0.00 0.00 94 1012.0
20260509162517 50 311 1.0 3.0 0.00 0.00 0.00 94 1012.1
20260509162016 50 311 0.0 2.0 0.00 0.00 0.00 94 1012.0
20260509161515 50 311 0.0 2.0 0.00 0.00 0.00 94 1012.1
20260509161014 50 311 0.0 2.0 0.00 0.00 0.00 93 1012.2
20260509160513 50 311 1.0 3.0 0.00 0.00 0.00 93 1012.3
20260509160014 50 311 1.0 3.0 0.00 0.00 0.00 93 1012.3
20260509155510 50 311 1.0 2.0 0.00 0.00 0.00 93 1012.3
20260509155009 50 311 0.0 2.0 0.00 0.00 0.00 93 1012.2
20260509154511 49 311 0.0 2.0 0.00 0.00 0.00 93 1012.3
20260509154009 49 311 1.0 2.0 0.00 0.00 0.00 92 1012.2
20260509153507 49 311 0.0 2.0 0.00 0.00 0.00 93 1012.3
20260509153013 49 311 1.0 3.0 0.00 0.00 0.00 93 1012.3
20260509152506 49 311 0.0 3.0 0.00 0.00 0.00 93 1012.2
20260509152008 49 311 2.0 4.0 0.00 0.00 0.00 93 1012.4
20260509151505 49 269 1.0 3.0 0.00 0.00 0.00 93 1012.3
20260509151005 49 269 1.0 2.0 0.00 0.00 0.00 93 1012.4
20260509150504 49 268 0.0 2.0 0.00 0.00 0.00 93 1012.5
20260509150004 49 268 0.0 2.0 0.00 0.00 0.00 93 1012.5
20260509145504 49 360 0.0 2.0 0.00 0.00 0.00 93 1012.5
20260509145006 49 360 0.0 2.0 0.00 0.00 0.00 93 1012.5
20260509144512 49 360 0.0 3.0 0.00 0.00 0.00 94 1012.4
20260509144005 48 360 1.0 3.0 0.00 0.00 0.00 93 1012.4
20260509143502 48 360 0.0 2.0 0.00 0.00 0.00 93 1012.5
20260509143001 48 360 0.0 3.0 0.00 0.00 0.00 94 1012.5
20260509142559 48 360 0.0 3.0 0.00 0.00 0.00 93 1012.5
20260509142102 48 360 0.0 2.0 0.00 0.00 0.00 94 1012.6
20260509141558 47 360 0.0 2.0 0.00 0.00 0.00 94 1012.5
20260509141058 47 360 1.0 2.0 0.00 0.00 0.00 94 1012.5
20260509140557 47 360 0.0 2.0 0.00 0.00 0.00 94 1012.4
20260509140106 47 360 0.0 4.0 0.00 0.00 0.00 94 1012.7
20260509135558 47 360 0.0 4.0 0.00 0.00 0.00 94 1012.7
20260509135059 47 360 1.0 4.0 0.00 0.00 0.00 94 1012.7
20260509134610 47 360 2.0 4.0 0.00 0.00 0.00 94 1012.7
20260509134055 47 360 1.0 3.0 0.00 0.00 0.00 94 1012.5
20260509133555 47 360 0.0 3.0 0.00 0.00 0.00 94 1012.6
20260509133054 47 360 1.0 3.0 0.00 0.00 0.00 94 1012.7
20260509132554 46 360 0.0 3.0 0.00 0.00 0.00 93 1012.6
20260509132058 47 360 0.0 2.0 0.00 0.00 0.00 94 1012.5
20260509131553 46 360 1.0 2.0 0.00 0.00 0.00 93 1012.5
20260509131053 46 360 0.0 2.0 0.00 0.00 0.00 94 1012.4
20260509130553 46 360 0.0 2.0 0.00 0.00 0.00 94 1012.4
20260509130059 46 360 0.0 2.0 0.00 0.00 0.00 94 1012.4
20260509125552 46 360 0.0 2.0 0.00 0.00 0.00 94 1012.4
20260509125051 46 360 0.0 2.0 0.00 0.00 0.00 94 1012.4
20260509124551 46 360 0.0 1.0 0.00 0.00 0.00 94 1012.4
20260509124050 46 360 0.0 1.0 0.00 0.00 0.00 94 1012.5
20260509123553 45 360 0.0 0.0 0.00 0.00 0.00 94 1012.5
20260509123109 45 360 0.0 0.0 0.00 0.00 0.00 94 1012.5
20260509122549 46 360 0.0 2.0 0.00 0.00 0.00 94 1012.6
20260509122048 46 360 0.0 2.0 0.00 0.00 0.00 94 1012.7
20260509121608 46 360 0.0 2.0 0.00 0.00 0.00 94 1012.8
20260509121049 45 360 0.0 2.0 0.00 0.00 0.00 94 1013.0
20260509120547 45 360 0.0 3.0 0.00 0.00 0.00 94 1013.0
20260509120046 45 360 0.0 3.0 0.00 0.00 0.00 94 1013.1
20260509115546 45 360 1.0 2.0 0.00 0.00 0.00 94 1013.0
20260509115046 45 360 0.0 2.0 0.00 0.00 0.00 94 1013.0
20260509114550 45 360 0.0 2.0 0.00 0.00 0.00 94 1013.0
20260509114047 44 290 0.0 2.0 0.00 0.00 0.00 94 1013.0
20260509113548 44 290 0.0 2.0 0.00 0.00 0.00 94 1012.9
20260509113047 44 290 0.0 2.0 0.00 0.00 0.00 94 1012.9
20260509112545 44 290 0.0 2.0 0.00 0.00 0.00 94 1013.0
20260509112045 44 289 0.0 1.0 0.00 0.00 0.00 94 1013.0
20260509111559 44 290 0.0 1.0 0.00 0.00 0.00 94 1013.0
20260509111043 44 290 0.0 1.0 0.00 0.00 0.00 94 1012.9
20260509110544 44 290 0.0 1.0 0.00 0.00 0.00 94 1012.9
20260509110042 44 290 0.0 1.0 0.00 0.00 0.00 94 1012.9
20260509105545 44 360 0.0 2.0 0.00 0.00 0.00 94 1012.8
20260509105042 44 360 0.0 2.0 0.00 0.00 0.00 94 1012.8
20260509104546 44 360 0.0 2.0 0.00 0.00 0.00 93 1012.9
20260509104041 44 360 0.0 2.0 0.00 0.00 0.00 93 1012.8
20260509103540 44 360 0.0 2.0 0.00 0.00 0.00 93 1012.7
20260509103048 44 360 0.0 1.0 0.00 0.00 0.00 93 1012.7
20260509102539 44 360 0.0 1.0 0.00 0.00 0.00 93 1012.6
20260509102040 44 360 0.0 1.0 0.00 0.00 0.00 93 1012.8
20260509101611 44 360 0.0 2.0 0.00 0.00 0.00 93 1013.0
20260509101038 43 360 0.0 2.0 0.00 0.00 0.00 93 1013.1
20260509100543 43 360 0.0 2.0 0.00 0.00 0.00 93 1013.1
20260509100042 43 360 0.0 2.0 0.00 0.00 0.00 93 1013.1
20260509095539 43 288 0.0 2.0 0.00 0.00 0.00 93 1013.2
20260509095038 43 288 0.0 2.0 0.00 0.00 0.00 93 1013.2
20260509094540 43 360 0.0 2.0 0.00 0.00 0.00 93 1013.2
20260509094036 43 360 0.0 2.0 0.00 0.00 0.00 93 1013.1
20260509093536 43 360 0.0 2.0 0.00 0.00 0.00 93 1013.1
20260509093036 44 288 0.0 1.0 0.00 0.00 0.00 92 1013.0
20260509092535 44 289 0.0 1.0 0.00 0.00 0.00 92 1013.0
20260509092036 43 360 0.0 2.0 0.00 0.00 0.00 92 1013.1
20260509091541 43 360 0.0 2.0 0.00 0.00 0.00 92 1013.0
20260509091035 44 360 0.0 2.0 0.00 0.00 0.00 92 1013.1
20260509090535 44 360 0.0 2.0 0.00 0.00 0.00 92 1013.1
20260509090040 44 360 0.0 2.0 0.00 0.00 0.00 92 1013.2
20260509085534 44 288 0.0 2.0 0.00 0.00 0.00 92 1013.2
20260509085034 43 360 0.0 2.0 0.00 0.00 0.00 92 1013.2
20260509084537 44 289 0.0 2.0 0.00 0.00 0.00 92 1013.2
20260509084035 43 290 0.0 1.0 0.00 0.00 0.00 91 1013.3
20260509083533 43 290 0.0 0.0 0.00 0.00 0.00 91 1013.2
20260509083033 43 290 0.0 0.0 0.00 0.00 0.00 91 1013.1
20260509082532 43 290 0.0 0.0 0.00 0.00 0.00 91 1013.1
20260509082032 43 290 0.0 0.0 0.00 0.00 0.00 91 1013.1
20260509081539 43 290 0.0 0.0 0.00 0.00 0.00 90 1013.1
20260509081033 43 290 0.0 1.0 0.00 0.00 0.00 90 1013.0
20260509080531 43 290 0.0 3.0 0.00 0.00 0.00 90 1013.0
20260509080035 43 290 1.0 3.0 0.00 0.00 0.00 90 1013.1
20260509075532 43 290 0.0 1.0 0.00 0.00 0.00 90 1013.2
20260509075034 43 290 0.0 2.0 0.00 0.00 0.00 89 1013.3
20260509074541 43 290 0.0 2.0 0.00 0.00 0.00 89 1013.2
20260509074029 43 290 0.0 4.0 0.00 0.00 0.00 89 1013.3
20260509073529 43 290 1.0 4.0 0.00 0.00 0.00 88 1013.4
20260509073029 43 290 2.0 4.0 0.00 0.00 0.00 88 1013.4
20260509072529 43 290 2.0 4.0 0.00 0.00 0.00 87 1013.2
20260509072027 43 355 1.0 2.0 0.00 0.00 0.00 87 1013.1
20260509071527 43 355 1.0 2.0 0.00 0.00 0.00 86 1012.9
20260509071027 44 355 0.0 0.0 0.00 0.00 0.00 85 1012.8
20260509070527 44 360 0.0 1.0 0.00 0.00 0.00 84 1012.7
20260509070026 44 360 0.0 2.0 0.00 0.00 0.00 83 1012.6
20260509065525 44 360 0.0 2.0 0.00 0.00 0.00 81 1012.8
20260509065027 44 360 0.0 0.0 0.00 0.00 0.00 81 1012.7
20260509064525 44 355 0.0 0.0 0.00 0.00 0.00 81 1012.7
20260509064027 44 355 0.0 0.0 0.00 0.00 0.00 81 1012.8
20260509063523 44 355 0.0 0.0 0.00 0.00 0.00 81 1012.7
20260509063028 44 355 0.0 0.0 0.00 0.00 0.00 81 1012.8
20260509062525 44 355 0.0 0.0 0.00 0.00 0.00 80 1012.7
20260509062027 44 355 0.0 0.0 0.00 0.00 0.00 80 1012.8
20260509061522 44 355 0.0 0.0 0.00 0.00 0.00 79 1012.9
20260509061032 44 355 0.0 0.0 0.00 0.00 0.00 79 1013.0
20260509060522 44 355 0.0 0.0 0.00 0.00 0.00 80 1013.0
20260509060021 43 355 0.0 0.0 0.00 0.00 0.00 80 1013.0
20260509055520 43 355 0.0 0.0 0.00 0.00 0.00 80 1013.0
20260509055023 43 355 0.0 0.0 0.00 0.00 0.00 81 1013.2
20260509054518 43 360 0.0 0.0 0.00 0.00 0.00 80 1013.3
20260509054017 43 360 0.0 0.0 0.00 0.00 0.00 80 1013.7
20260509053517 43 360 0.0 0.0 0.00 0.00 0.00 80 1013.4
20260509053021 43 360 0.0 0.0 0.00 0.00 0.00 80 1013.3
20260509052516 43 360 0.0 0.0 0.00 0.00 0.00 80 1013.3
20260509052015 43 360 0.0 0.0 0.00 0.00 0.00 80 1013.3
20260509051514 42 360 0.0 0.0 0.00 0.00 0.00 80 1013.3
20260509051017 42 360 0.0 0.0 0.00 0.00 0.00 80 1013.3
20260509050514 42 360 0.0 1.0 0.00 0.00 0.00 80 1013.2
20260509050015 42 360 0.0 1.0 0.00 0.00 0.00 80 1013.3
20260509045518 42 360 0.0 0.0 0.00 0.00 0.00 79 1013.2
20260509045013 42 360 0.0 1.0 0.00 0.00 0.00 79 1013.2
20260509044512 42 360 0.0 1.0 0.00 0.00 0.00 78 1013.2
20260509044019 42 360 0.0 1.0 0.00 0.00 0.00 78 1013.3
20260509043510 42 360 0.0 1.0 0.00 0.00 0.00 77 1013.3
20260509043010 42 360 0.0 0.0 0.00 0.00 0.00 78 1013.4
20260509042512 42 360 0.0 0.0 0.00 0.00 0.00 78 1013.4
20260509042014 42 360 0.0 1.0 0.00 0.00 0.00 78 1013.5
20260509041509 42 360 0.0 1.0 0.00 0.00 0.00 78 1013.3
20260509041007 42 360 0.0 1.0 0.00 0.00 0.00 78 1013.4
20260509040508 42 360 0.0 0.0 0.00 0.00 0.00 77 1013.4
20260509040006 42 360 0.0 0.0 0.00 0.00 0.00 77 1013.3
20260509035506 42 360 0.0 1.0 0.00 0.00 0.00 76 1013.3
20260509035005 42 360 0.0 1.0 0.00 0.00 0.00 76 1013.3
20260509034505 43 360 0.0 0.0 0.00 0.00 0.00 75 1013.4
20260509034006 43 360 0.0 0.0 0.00 0.00 0.00 74 1013.3
20260509033504 43 360 0.0 0.0 0.00 0.00 0.00 74 1013.2
20260509033004 43 360 0.0 0.0 0.00 0.00 0.00 74 1013.1
20260509032504 44 360 0.0 0.0 0.00 0.00 0.00 73 1013.1
20260509032003 44 360 0.0 0.0 0.00 0.00 0.00 72 1013.1
20260509031504 44 360 0.0 0.0 0.00 0.00 0.00 71 1013.1
20260509031004 45 360 0.0 0.0 0.00 0.00 0.00 70 1013.0
20260509030506 45 360 0.0 0.0 0.00 0.00 0.00 69 1012.9
20260509030004 45 360 0.0 0.0 0.00 0.00 0.00 67 1013.1
20260509025503 46 360 0.0 1.0 0.00 0.00 0.00 67 1013.1
20260509025003 45 360 0.0 1.0 0.00 0.00 0.00 66 1013.2
20260509024505 45 360 0.0 0.0 0.00 0.00 0.00 65 1013.2
20260509024003 45 360 0.0 0.0 0.00 0.00 0.00 65 1013.2
20260509023503 45 355 0.0 0.0 0.00 0.00 0.00 64 1013.2
20260509023002 45 360 0.0 0.0 0.00 0.00 0.00 64 1013.2
20260509022503 45 360 0.0 0.0 0.00 0.00 0.00 64 1013.2
20260509022002 45 360 0.0 0.0 0.00 0.00 0.00 64 1013.1
20260509021502 46 360 0.0 0.0 0.00 0.00 0.00 63 1013.1
20260509021001 46 360 0.0 0.0 0.00 0.00 0.00 63 1013.1
20260509020503 47 360 0.0 0.0 0.00 0.00 0.00 62 1013.0
20260509015559 48 360 0.0 1.0 0.00 0.00 0.00 59 1012.8
20260509015059 48 360 0.0 1.0 0.00 0.00 0.00 58 1012.8
20260509014558 48 360 0.0 0.0 0.00 0.00 0.00 57 1012.6
20260509014057 48 360 0.0 1.0 0.00 0.00 0.00 57 1012.6
20260509013557 48 360 0.0 1.0 0.00 0.00 0.00 57 1012.6
20260509013104 49 360 0.0 0.0 0.00 0.00 0.00 55 1012.6
20260509012557 49 360 0.0 0.0 0.00 0.00 0.00 56 1012.6
20260509012058 49 360 0.0 0.0 0.00 0.00 0.00 55 1012.5
20260509011559 48 360 0.0 0.0 0.00 0.00 0.00 54 1012.5
20260509011054 49 360 0.0 0.0 0.00 0.00 0.00 54 1012.4
20260509010554 49 360 0.0 0.0 0.00 0.00 0.00 54 1012.3
20260509010055 49 360 0.0 0.0 0.00 0.00 0.00 53 1012.1
20260509005556 50 360 0.0 0.0 0.00 0.00 0.00 52 1012.0
20260509005054 50 360 0.0 0.0 0.00 0.00 0.00 52 1011.8
20260509004555 50 360 0.0 0.0 0.00 0.00 0.00 52 1011.6
20260509004052 51 360 0.0 0.0 0.00 0.00 0.00 51 1011.5
20260509003553 52 355 0.0 1.0 0.00 0.00 0.00 49 1011.4
20260509003052 52 355 0.0 1.0 0.00 0.00 0.00 48 1011.4
20260509002556 52 355 0.0 1.0 0.00 0.00 0.00 47 1011.5
20260509002053 53 360 0.0 0.0 0.00 0.00 0.00 46 1011.4
20260509001552 54 355 0.0 1.0 0.00 0.00 0.00 45 1011.4
20260509001051 54 355 0.0 2.0 0.00 0.00 0.00 48 1011.4
20260509000555 54 355 0.0 3.0 0.00 0.00 0.00 49 1011.5
20260509000051 54 355 1.0 4.0 0.00 0.00 0.00 45 1011.5
20260508235551 54 355 0.0 4.0 0.00 0.00 0.00 44 1011.5
20260508235054 55 355 0.0 2.0 0.00 0.00 0.00 47 1011.4
20260508234553 55 355 0.0 2.0 0.00 0.00 0.00 45 1011.3
20260508234053 55 355 0.0 3.0 0.00 0.00 0.00 43 1011.3
20260508233550 55 360 0.0 2.0 0.00 0.00 0.00 43 1011.2
20260508233054 56 355 0.0 4.0 0.00 0.00 0.00 40 1011.2
20260508232550 57 355 0.0 4.0 0.00 0.00 0.00 41 1011.1
20260508232050 57 355 1.0 4.0 0.00 0.00 0.00 40 1011.0
20260508231550 57 355 2.0 5.0 0.00 0.00 0.00 40 1011.1
20260508231050 57 336 0.0 5.0 0.00 0.00 0.00 39 1011.1
20260508230549 58 331 2.0 5.0 0.00 0.00 0.00 37 1011.1
20260508230050 58 355 2.0 5.0 0.00 0.00 0.00 38 1011.0
20260508225549 58 336 1.0 4.0 0.00 0.00 0.00 39 1011.0
20260508225048 59 336 2.0 5.0 0.00 0.00 0.00 38 1010.9
20260508224551 59 326 1.0 5.0 0.00 0.00 0.00 40 1010.9
20260508224047 59 319 2.0 6.0 0.00 0.00 0.00 37 1010.8
20260508223551 59 304 4.0 6.0 0.00 0.00 0.00 37 1010.8
20260508223047 59 273 3.0 6.0 0.00 0.00 0.00 37 1010.8
20260508222545 59 355 1.0 7.0 0.00 0.00 0.00 39 1010.8
20260508222045 59 347 4.0 8.0 0.00 0.00 0.00 37 1010.9
20260508221544 59 342 3.0 9.0 0.00 0.00 0.00 38 1010.8
20260508221044 59 355 3.0 9.0 0.00 0.00 0.00 37 1010.8
20260508220643 60 28 3.0 6.0 0.00 0.00 0.00 37 1010.9
20260508220043 60 344 2.0 8.0 0.00 0.00 0.00 38 1010.9
20260508215542 60 337 2.0 10.0 0.00 0.00 0.00 38 1010.8
20260508215042 60 322 1.0 5.0 0.00 0.00 0.00 38 1010.9
20260508214541 60 249 1.0 6.0 0.00 0.00 0.00 37 1010.7
20260508214040 59 340 3.0 9.0 0.00 0.00 0.00 39 1010.9
20260508213539 59 355 3.0 9.0 0.00 0.00 0.00 40 1010.8
20260508213043 59 346 4.0 12.0 0.00 0.00 0.00 41 1010.9
20260508212539 59 315 6.0 11.0 0.00 0.00 0.00 40 1011.0
20260508212039 59 5 4.0 11.0 0.00 0.00 0.00 41 1010.8
20260508211540 59 343 5.0 11.0 0.00 0.00 0.00 42 1011.0
20260508211041 59 355 5.0 11.0 0.00 0.00 0.00 40 1011.0
20260508210538 59 340 5.0 13.0 0.00 0.00 0.00 41 1011.0
20260508210038 59 360 4.0 14.0 0.00 0.00 0.00 43 1011.0
20260508205538 59 309 7.0 14.0 0.00 0.00 0.00 43 1011.0
20260508205038 59 5 6.0 15.0 0.00 0.00 0.00 42 1010.9
20260508204539 59 283 10.0 15.0 0.00 0.00 0.00 42 1011.0
20260508204037 59 344 4.0 15.0 0.00 0.00 0.00 43 1010.9
20260508203539 59 343 5.0 15.0 0.00 0.00 0.00 46 1011.0
20260508203039 59 348 5.0 13.0 0.00 0.00 0.00 45 1010.9
20260508202536 59 5 7.0 13.0 0.00 0.00 0.00 44 1010.9
20260508202039 59 327 5.0 12.0 0.00 0.00 0.00 46 1010.9
20260508201538 59 341 6.0 12.0 0.00 0.00 0.00 45 1010.9
20260508201035 60 336 5.0 11.0 0.00 0.00 0.00 46 1010.9
20260508200535 59 321 4.0 18.0 0.00 0.00 0.00 48 1010.9
20260508200043 58 325 8.0 18.0 0.00 0.00 0.00 47 1011.0
20260508195534 59 17 10.0 18.0 0.00 0.00 0.00 46 1011.1
20260508195034 58 348 8.0 18.0 0.00 0.00 0.00 47 1011.2
20260508194536 59 295 8.0 15.0 0.00 0.00 0.00 46 1011.1
20260508194033 59 14 6.0 13.0 0.00 0.00 0.00 48 1011.2
20260508193532 60 355 6.0 11.0 0.00 0.00 0.00 47 1011.2
20260508193032 59 345 3.0 12.0 0.00 0.00 0.00 49 1011.1
20260508192531 60 360 5.0 9.0 0.00 0.00 0.00 47 1011.2
20260508192030 59 331 4.0 9.0 0.00 0.00 0.00 50 1011.2
20260508191532 59 315 5.0 11.0 0.00 0.00 0.00 47 1011.3
20260508191029 58 342 6.0 13.0 0.00 0.00 0.00 49 1011.3
20260508190528 58 335 5.0 14.0 0.00 0.00 0.00 53 1011.3
20260508190029 58 349 6.0 14.0 0.00 0.00 0.00 52 1011.3
20260508185527 59 330 3.0 10.0 0.00 0.00 0.00 53 1011.3
20260508185029 58 348 2.0 11.0 0.00 0.00 0.00 53 1011.4
20260508184525 57 286 5.0 13.0 0.00 0.00 0.00 53 1011.4
20260508184024 56 347 2.0 13.0 0.00 0.00 0.00 56 1011.4
20260508183527 57 9 3.0 11.0 0.00 0.00 0.00 56 1011.4
20260508183025 57 348 4.0 11.0 0.00 0.00 0.00 56 1011.6
20260508182523 56 84 3.0 11.0 0.00 0.00 0.00 55 1011.5
20260508182022 56 69 1.0 9.0 0.00 0.00 0.00 56 1011.6
20260508181522 56 24 3.0 10.0 0.00 0.00 0.00 56 1011.6
20260508181021 56 360 4.0 13.0 0.00 0.00 0.00 55 1011.7
20260508180521 57 355 6.0 13.0 0.00 0.00 0.00 54 1011.7
20260508180021 56 32 3.0 5.0 0.00 0.00 0.00 57 1011.7
20260508175520 54 340 1.0 6.0 0.00 0.00 0.00 59 1011.7
20260508175022 54 341 3.0 9.0 0.00 0.00 0.00 57 1011.7
20260508174620 54 44 3.0 9.0 0.00 0.00 0.00 57 1011.6
20260508174019 54 351 2.0 9.0 0.00 0.00 0.00 56 1011.7
20260508173518 54 331 3.0 8.0 0.00 0.00 0.00 56 1011.5
20260508173020 55 336 1.0 11.0 0.00 0.00 0.00 57 1011.3
20260508172522 55 350 5.0 11.0 0.00 0.00 0.00 55 1011.2
20260508172018 55 301 2.0 10.0 0.00 0.00 0.00 55 1011.3
20260508171519 56 351 3.0 9.0 0.00 0.00 0.00 58 1011.3
20260508171017 54 242 3.0 9.0 0.00 0.00 0.00 58 1011.4
20260508170518 54 308 2.0 9.0 0.00 0.00 0.00 58 1011.4
20260508170017 53 328 2.0 5.0 0.00 0.00 0.00 58 1011.4
20260508165516 53 329 1.0 4.0 0.00 0.00 0.00 59 1011.5
20260508165017 52 331 2.0 4.0 0.00 0.00 0.00 59 1011.4
20260508164517 52 336 1.0 5.0 0.00 0.00 0.00 58 1011.5